{"data":{"norad_id":56495,"epoch":"2026-05-25T01:23:34.108224Z","epoch_age_seconds":66534,"freshness":"FRESH","line1":"1 56495U 23064AZ  26145.05803366 -.00000089  00000+0  30536-6 0  9993","line2":"2 56495  69.9991 271.8231 0003076 270.7297  89.3510 14.98331676167679","mean_motion":14.98331676,"eccentricity":0.0003076,"inclination_deg":69.9991,"raan_deg":271.8231,"arg_perigee_deg":270.7297,"mean_anomaly_deg":89.351,"bstar":3.0536e-7,"rev_number":16767,"period_min":96.106891622573,"perigee_km":569.9128303185,"apogee_km":574.1885857965,"semimajor_km":6950.1877080575,"source":"CELESTRAK","updated_at":"2026-05-25T13:38:18.076392Z"}}